|
NORAD ID: 31132 Int'l Code: 2007-012Q
Perigee: 651.2 km
Apogee: 772.4 km
Inclination: 97.9 °
Period: 98.9 minutes
Semi major axis: 7082 km
Launch date: April 17, 2007
Source: United States (US)
Two Line Element Set (TLE):
1 31132U 07012Q 13140.97470079 .00000830 00000-0 18737-3 0 7709
2 31132 097.8629 144.0086 0085561 118.2862 272.6687 14.56460824323601
Source:
NASA's NSSDC Master Catalog entry for CP4
|